Sturgeon Bay, WI

9:28 PM CST on December 10, 2017 (GMT -0600)
Door County Cherryland

Weather History for KSUE - January, 2013

Change the Weather History Date:

Monday, January 14, 2013

  Actual Average Record
Temperature  
Mean Temperature 14 °F -  
Max Temperature 21 °F 25 °F 44 °F (1932)
Min Temperature 8 °F 9 °F -23 °F (1929)
Degree Days  
Heating Degree Days 50    
Moisture  
Dew Point 5 °F    
Average Humidity 64    
Maximum Humidity 79    
Minimum Humidity 50    
Precipitation  
Precipitation 0.00 in - - ()
Sea Level Pressure  
Sea Level Pressure 30.30 in    
Wind  
Wind Speed 12 mph (West)    
Max Wind Speed 18 mph    
Max Gust Speed 24 mph    
Visibility 10 miles    
Events      
Averages and records for this station are not official NWS values.
T = Trace of Precipitation, MM = Missing Value Source: NWS Daily Summary

Daily Weather History Graph

Daily Weather History Graph

Search for Another Location

Airport or City:

Trip Planner

Search our weather history database for the weather conditions in past years. The results will help you decide how hot, cold, wet, or windy it might be!

Date:

Astronomy

Jan. 14, 2013 Rise Set
Actual Time 7:24 AM CST 4:33 PM CST
Civil Twilight 6:51 AM CST 5:06 PM CST
Nautical Twilight 6:15 AM CST 5:42 PM CST
Astronomical Twilight 5:40 AM CST 6:18 PM CST
Moon 8:47 AM CST (1/14) 8:30 PM CST (1/14)
Length of Visible Light 10h 15m
Length of Day
9h 09m
Waxing Crescent, 11% of the Moon is Illuminated
Jan 14
Waxing Crescent
Jan 18
First Quarter
Jan 26
Full
Feb 3
Last Quarter
Feb 10
New

Hourly Weather History & Observations

Time (CST) Temp. Windchill Dew Point Humidity Pressure Visibility Wind Dir Wind Speed Gust Speed Precip Events Conditions
12:15 AM 15.8 °F 0.3 °F 3.2 °F 58% 30.09 in 10.0 mi West 16.1 mph 23.0 mph N/A   Overcast
12:35 AM 14.0 °F -3.0 °F 3.2 °F 62% 30.09 in 10.0 mi West 18.4 mph 21.9 mph N/A   Mostly Cloudy
12:55 AM 14.0 °F -0.2 °F 3.2 °F 62% 30.11 in 10.0 mi West 12.7 mph 20.7 mph N/A   Partly Cloudy
1:15 AM 12.2 °F -4.3 °F 1.4 °F 62% 30.12 in 10.0 mi WNW 16.1 mph 19.6 mph N/A   Scattered Clouds
1:35 AM 12.2 °F -2.5 °F 1.4 °F 62% 30.13 in 10.0 mi West 12.7 mph 24.2 mph N/A   Partly Cloudy
1:55 AM 12.2 °F -3.1 °F 3.2 °F 67% 30.15 in 10.0 mi WNW 13.8 mph 18.4 mph N/A   Clear
2:15 AM 12.2 °F -3.1 °F 1.4 °F 62% 30.16 in 10.0 mi WNW 13.8 mph 20.7 mph N/A   Clear
2:55 AM 12.2 °F -1.0 °F 3.2 °F 67% 30.19 in 10.0 mi West 10.4 mph - N/A   Scattered Clouds
3:35 AM 10.4 °F -4.8 °F 3.2 °F 73% 30.19 in 10.0 mi West 12.7 mph - N/A   Clear
4:15 AM 10.4 °F -4.1 °F 3.2 °F 73% 30.20 in 10.0 mi West 11.5 mph - N/A   Clear
4:35 AM 10.4 °F -4.8 °F 1.4 °F 67% 30.21 in 10.0 mi West 12.7 mph 17.3 mph N/A   Partly Cloudy
4:55 AM 10.4 °F -2.4 °F 1.4 °F 67% 30.22 in 10.0 mi West 9.2 mph - N/A   Clear
5:15 AM 10.4 °F -3.3 °F 1.4 °F 67% 30.23 in 10.0 mi West 10.4 mph - N/A   Clear
5:35 AM 10.4 °F -4.8 °F 3.2 °F 73% 30.25 in 10.0 mi West 12.7 mph - N/A   Partly Cloudy
5:55 AM 8.6 °F -7.0 °F 1.4 °F 73% 30.26 in 10.0 mi West 12.7 mph - N/A   Clear
6:15 AM 8.6 °F -5.5 °F 1.4 °F 73% 30.27 in 10.0 mi West 10.4 mph - N/A   Clear
6:35 AM 8.6 °F -3.7 °F 1.4 °F 73% 30.29 in 10.0 mi West 8.1 mph - N/A   Clear
6:55 AM 8.6 °F -4.7 °F 3.2 °F 79% 30.30 in 10.0 mi West 9.2 mph - N/A   Clear
7:15 AM 8.6 °F -4.7 °F 1.4 °F 73% 30.32 in 10.0 mi West 9.2 mph - N/A   Clear
7:35 AM 8.6 °F -3.7 °F 3.2 °F 79% 30.33 in 10.0 mi WSW 8.1 mph - N/A   Clear
7:55 AM 10.4 °F -2.4 °F 3.2 °F 73% 30.34 in 10.0 mi WSW 9.2 mph - N/A   Clear
8:15 AM 10.4 °F -2.4 °F 3.2 °F 73% 30.34 in 10.0 mi WSW 9.2 mph - N/A   Clear
8:35 AM 10.4 °F -4.8 °F 3.2 °F 73% 30.35 in 10.0 mi West 12.7 mph - N/A   Clear
8:55 AM 12.2 °F -2.5 °F 5.0 °F 73% 30.35 in 10.0 mi West 12.7 mph - N/A   Clear
9:15 AM 12.2 °F -2.5 °F 5.0 °F 73% 30.36 in 10.0 mi West 12.7 mph - N/A   Clear
9:35 AM 12.2 °F -2.5 °F 3.2 °F 67% 30.35 in 10.0 mi West 12.7 mph - N/A   Clear
9:55 AM 12.2 °F -1.8 °F 5.0 °F 73% 30.35 in 10.0 mi West 11.5 mph - N/A   Clear
10:15 AM 15.8 °F 4.2 °F 3.2 °F 58% 30.35 in 10.0 mi West 9.2 mph - N/A   Clear
10:35 AM 15.8 °F 4.2 °F 3.2 °F 58% 30.35 in 10.0 mi West 9.2 mph - N/A   Clear
10:55 AM 15.8 °F 3.4 °F 3.2 °F 58% 30.34 in 10.0 mi West 10.4 mph - N/A   Clear
11:15 AM 15.8 °F 4.2 °F 3.2 °F 58% 30.33 in 10.0 mi West 9.2 mph - N/A   Clear
11:35 AM 17.6 °F 5.7 °F 5.0 °F 58% 30.32 in 10.0 mi West 10.4 mph - N/A   Clear
11:55 AM 17.6 °F 5.7 °F 5.0 °F 58% 30.32 in 10.0 mi SW 10.4 mph - N/A   Clear
12:15 PM 17.6 °F 4.3 °F 5.0 °F 58% 30.32 in 10.0 mi WSW 12.7 mph 16.1 mph N/A   Clear
12:35 PM 19.4 °F 7.2 °F 5.0 °F 54% 30.32 in 10.0 mi WSW 11.5 mph - N/A   Clear
12:55 PM 19.4 °F 7.9 °F 6.8 °F 58% 30.32 in 10.0 mi SW 10.4 mph - N/A   Clear
1:15 PM 19.4 °F 7.2 °F 5.0 °F 54% 30.31 in 10.0 mi SW 11.5 mph - N/A   Clear
1:35 PM 21.2 °F 10.9 °F 6.8 °F 54% 30.30 in 10.0 mi WSW 9.2 mph - N/A   Clear
2:15 PM 21.2 °F 10.9 °F 5.0 °F 50% 30.30 in 10.0 mi SW 9.2 mph - N/A   Clear
2:35 PM 21.2 °F 10.9 °F 5.0 °F 50% 30.30 in 10.0 mi SW 9.2 mph - N/A   Clear
2:55 PM 21.2 °F 8.9 °F 5.0 °F 50% 30.32 in 10.0 mi WSW 12.7 mph 16.1 mph N/A   Clear
3:15 PM 21.2 °F 8.3 °F 5.0 °F 50% 30.32 in 10.0 mi WSW 13.8 mph 17.3 mph N/A   Clear
3:35 PM 21.2 °F 9.5 °F 6.8 °F 54% 30.32 in 10.0 mi WSW 11.5 mph - N/A   Clear
3:55 PM 19.4 °F 5.0 °F 6.8 °F 58% 30.33 in 10.0 mi WSW 16.1 mph 21.9 mph N/A   Clear
4:15 PM 19.4 °F 6.0 °F 6.8 °F 58% 30.33 in 10.0 mi WSW 13.8 mph 21.9 mph N/A   Partly Cloudy
4:35 PM 19.4 °F 5.5 °F 6.8 °F 58% 30.33 in 10.0 mi WSW 15.0 mph 19.6 mph N/A   Partly Cloudy
4:55 PM 19.4 °F 7.2 °F 6.8 °F 58% 30.33 in 10.0 mi WSW 11.5 mph 19.6 mph N/A   Scattered Clouds
5:15 PM 17.6 °F 5.7 °F 6.8 °F 63% 30.33 in 10.0 mi West 10.4 mph 18.4 mph N/A   Scattered Clouds
5:35 PM 17.6 °F 5.7 °F 6.8 °F 63% 30.33 in 10.0 mi West 10.4 mph - N/A   Clear
5:55 PM 17.6 °F 5.7 °F 6.8 °F 63% 30.33 in 10.0 mi West 10.4 mph - N/A   Clear
6:15 PM 17.6 °F 4.3 °F 6.8 °F 63% 30.33 in 10.0 mi West 12.7 mph 16.1 mph N/A   Clear
6:35 PM 17.6 °F 5.7 °F 6.8 °F 63% 30.33 in 10.0 mi West 10.4 mph - N/A   Clear
6:55 PM 17.6 °F 6.4 °F 6.8 °F 63% 30.33 in 10.0 mi West 9.2 mph - N/A   Clear
7:15 PM 17.6 °F 5.7 °F 6.8 °F 63% 30.34 in 10.0 mi West 10.4 mph - N/A   Clear
7:35 PM 17.6 °F 6.4 °F 6.8 °F 63% 30.34 in 10.0 mi West 9.2 mph - N/A   Clear
7:55 PM 17.6 °F 7.3 °F 6.8 °F 63% 30.34 in 10.0 mi West 8.1 mph - N/A   Clear
8:15 PM 15.8 °F 4.2 °F 6.8 °F 68% 30.33 in 10.0 mi West 9.2 mph - N/A   Clear
8:35 PM 15.8 °F 5.1 °F 6.8 °F 68% 30.34 in 10.0 mi West 8.1 mph - N/A   Clear
8:55 PM 15.8 °F 2.7 °F 6.8 °F 68% 30.33 in 10.0 mi West 11.5 mph - N/A   Clear
9:15 PM 15.8 °F 3.4 °F 6.8 °F 68% 30.33 in 10.0 mi West 10.4 mph - N/A   Clear
9:35 PM 15.8 °F 2.7 °F 6.8 °F 68% 30.33 in 10.0 mi West 11.5 mph - N/A   Clear
9:55 PM 15.8 °F 4.2 °F 8.6 °F 73% 30.33 in 10.0 mi West 9.2 mph - N/A   Clear
10:15 PM 15.8 °F 3.4 °F 6.8 °F 68% 30.34 in 10.0 mi West 10.4 mph - N/A   Clear
10:35 PM 15.8 °F 2.1 °F 6.8 °F 68% 30.34 in 10.0 mi West 12.7 mph - N/A   Clear
10:55 PM 15.8 °F 2.7 °F 6.8 °F 68% 30.34 in 10.0 mi West 11.5 mph - N/A   Clear
11:15 PM 15.8 °F 4.2 °F 6.8 °F 68% 30.34 in 10.0 mi West 9.2 mph - N/A   Clear
11:35 PM 15.8 °F 2.7 °F 6.8 °F 68% 30.35 in 10.0 mi West 11.5 mph - N/A   Clear
11:55 PM 15.8 °F 3.4 °F 6.8 °F 68% 30.35 in 10.0 mi West 10.4 mph - N/A   Clear